TimeCDT,TemperatureF,Dew PointF,Humidity,Sea Level PressureIn,VisibilityMPH,Wind Direction,Wind SpeedMPH,Gust SpeedMPH,PrecipitationIn,Events,Conditions,WindDirDegrees,DateUTC
12:52 AM,64.0,57.0,78,29.94,7.0,East,3.5,-,N/A,,Clear,90,2013-05-19 05:52:00
1:52 AM,61.0,55.9,83,29.93,7.0,East,3.5,-,N/A,,Clear,100,2013-05-19 06:52:00
2:52 AM,60.1,55.9,86,29.93,6.0,Calm,Calm,-,N/A,,Clear,0,2013-05-19 07:52:00
3:52 AM,60.1,57.0,90,29.94,4.0,Calm,Calm,-,N/A,,Clear,0,2013-05-19 08:52:00
4:52 AM,57.9,55.9,93,29.93,3.0,Calm,Calm,-,N/A,,Clear,0,2013-05-19 09:52:00
5:28 AM,57.2,55.4,94,29.93,2.5,Calm,Calm,-,N/A,,Clear,0,2013-05-19 10:28:00
5:52 AM,60.1,57.0,90,29.93,3.0,Calm,Calm,-,N/A,,Clear,0,2013-05-19 10:52:00
5:59 AM,57.2,55.4,94,29.95,2.5,Calm,Calm,-,N/A,,Clear,0,2013-05-19 10:59:00
6:06 AM,59.0,57.2,94,29.95,3.0,Calm,Calm,-,N/A,,Clear,0,2013-05-19 11:06:00
6:52 AM,64.0,60.1,87,29.95,3.0,Calm,Calm,-,N/A,,Clear,0,2013-05-19 11:52:00
7:52 AM,68.0,62.1,81,29.94,4.0,SE,5.8,-,N/A,,Haze,140,2013-05-19 12:52:00
8:52 AM,73.0,64.0,73,29.95,6.0,South,5.8,-,N/A,,Haze,180,2013-05-19 13:52:00
9:52 AM,75.9,64.9,69,29.92,9.0,SE,9.2,-,N/A,,Clear,130,2013-05-19 14:52:00
10:52 AM,79.0,64.0,60,29.91,10.0,Calm,Calm,-,N/A,,Clear,0,2013-05-19 15:52:00
11:52 AM,81.0,64.0,56,29.88,10.0,ESE,10.4,-,N/A,,Clear,110,2013-05-19 16:52:00
12:52 PM,82.0,63.0,52,29.86,10.0,SSE,12.7,19.6,N/A,,Partly Cloudy,160,2013-05-19 17:52:00
1:52 PM,82.0,64.0,54,29.85,10.0,SSE,13.8,20.7,N/A,,Mostly Cloudy,160,2013-05-19 18:52:00
2:52 PM,84.0,64.9,53,29.83,10.0,South,15.0,20.7,N/A,,Partly Cloudy,170,2013-05-19 19:52:00
4:52 PM,84.9,63.0,48,29.76,10.0,SSE,13.8,21.9,N/A,,Clear,150,2013-05-19 21:52:00
5:52 PM,84.9,61.0,44,29.77,10.0,SSE,12.7,18.4,N/A,,Clear,160,2013-05-19 22:52:00
6:52 PM,84.0,61.0,46,29.75,10.0,SE,12.7,-,N/A,,Clear,130,2013-05-19 23:52:00
7:52 PM,82.0,60.1,47,29.77,10.0,SE,6.9,-,N/A,,Clear,130,2013-05-20 00:52:00
8:52 PM,80.1,61.0,52,29.77,10.0,SE,8.1,-,N/A,,Clear,140,2013-05-20 01:52:00
9:52 PM,77.0,62.1,60,29.79,10.0,South,8.1,-,N/A,,Clear,180,2013-05-20 02:52:00
10:52 PM,77.0,61.0,58,29.77,10.0,ESE,6.9,-,N/A,,Mostly Cloudy,120,2013-05-20 03:52:00
11:52 PM,78.1,66.0,66,29.76,8.0,SSE,10.4,-,N/A,,Mostly Cloudy,160,2013-05-20 04:52:00